Location: Newark
(51.3318°N, 0.0053°E)
Time: 14:32:25
(UTC+00:00)

CUBEBUG 2 - Visible Passes

Search period start: 02 July 2022 00:00
Search period end: 12 July 2022 00:00
Orbit: 582 x 695 km, 97.7° (Epoch: 01 July)

Date Brightness Start Highest point End Pass type
(mag) Time Alt. Az. Time Alt. Az. Time Alt. Az.
02 Jul ? 02:38:13 10° NNE 02:42:11 40° E 02:46:12 10° SSE visible
03 Jul ? 03:01:05 10° NNE 03:05:16 68° ESE 03:09:32 10° S visible
04 Jul ? 01:48:59 10° NE 01:51:18 14° E 01:53:38 10° ESE visible
05 Jul ? 02:11:09 10° NE 02:14:33 23° E 02:18:00 10° SSE visible
06 Jul ? 02:33:46 10° NNE 02:37:43 37° E 02:41:45 10° SSE visible
07 Jul ? 02:56:36 10° NNE 03:00:49 62° E 03:05:07 10° S visible
08 Jul ? 01:44:40 10° ENE 01:46:49 13° E 01:48:58 10° ESE visible
09 Jul ? 02:06:44 10° NE 02:10:04 22° E 02:13:27 10° SE visible
10 Jul ? 02:29:19 10° NNE 02:33:16 35° E 02:37:17 10° SSE visible
11 Jul ? 02:52:07 10° NNE 02:56:22 57° E 03:00:43 10° S visible
